When you browse on this site, cookies collect data to enhance your experience and personalize the content and advertising you see.
Visit our Privacy Policy to learn more. By continuing to use the site, you agree to this use of cookies and data.
  • In Hungary
  • List of Countries
  • For 7 days
  • Water Temperature
  • Satellite Maps
  • Weather Map
  • News
  • Weather Widgets
  • user-avatar
    Login

    Hourly Weather Radwanice

    Today, 17 December, Monday

    Time Temperature Precipitation Wind Pressure Humidity
    00:00 -2°C° 0 mm 1 mps 750 mmHg 80%
    01:00 -2°C° 0 mm 1 mps 750 mmHg 80%
    02:00 -2°C° 0 mm 1 mps 750 mmHg 80%
    03:00 -2°C° 0 mm 1 mps 750 mmHg 80%
    04:00 -1°C° 0 mm 1 mps 750 mmHg 80%
    05:00 -1°C° 0 mm 1 mps 751 mmHg 81%
    06:00 -2°C° 0 mm 1 mps 751 mmHg 81%
    07:00 -2°C° 0 mm 1 mps 751 mmHg 83%
    08:00 -1°C° 0 mm 1 mps 751 mmHg 82%
    09:00 -1°C° 0 mm 1 mps 752 mmHg 81%
    10:00 -2°C° 0 mm 2 mps 752 mmHg 80%
    11:00 +1°C° 0 mm 1 mps 752 mmHg 80%
    12:00 +1°C° 0 mm 1 mps 753 mmHg 79%
    13:00 +2°C° 0 mm 1 mps 753 mmHg 78%
    14:00 +2°C° 0 mm 1 mps 753 mmHg 81%
    15:00 +1°C° 0 mm 1 mps 754 mmHg 84%
    16:00 +1°C° 0 mm 1 mps 754 mmHg 87%
    17:00 +1°C° 0 mm 1 mps 754 mmHg 88%
    18:00 +1°C° 0 mm 1 mps 755 mmHg 88%
    19:00 +1°C° 0 mm 1 mps 755 mmHg 89%
    20:00 +1°C° 0 mm 1 mps 755 mmHg 89%
    21:00 +1°C° 0 mm 1 mps 756 mmHg 89%
    22:00 -1°C° 0 mm 2 mps 756 mmHg 89%
    23:00 -1°C° 0 mm 2 mps 756 mmHg 89%

    Tomorrow, 18 December, Tuesday

    Time Temperature Precipitation Wind Pressure Humidity
    00:00 -1°C° 0 mm 2 mps 757 mmHg 90%
    01:00 +1°C° 0 mm 2 mps 757 mmHg 90%
    02:00 +1°C° 0 mm 2 mps 757 mmHg 90%
    03:00 +1°C° 0 mm 2 mps 757 mmHg 91%
    04:00 +1°C° 0 mm 2 mps 757 mmHg 91%
    05:00 +1°C° 0.1 mm 2 mps 757 mmHg 92%
    06:00 +1°C° 0.1 mm 2 mps 757 mmHg 92%
    07:00 +1°C° 0.1 mm 2 mps 757 mmHg 93%
    08:00 +1°C° 0 mm 2 mps 757 mmHg 92%
    09:00 +1°C° 0 mm 2 mps 757 mmHg 92%
    10:00 +1°C° 0 mm 2 mps 758 mmHg 91%
    11:00 +2°C° 0 mm 2 mps 757 mmHg 91%
    12:00 +3°C° 0 mm 1 mps 757 mmHg 91%
    13:00 +4°C° 0 mm 1 mps 757 mmHg 91%
    14:00 +3°C° 0 mm 1 mps 757 mmHg 91%
    15:00 +3°C° 0 mm 1 mps 757 mmHg 92%
    16:00 +2°C° 0 mm 1 mps 757 mmHg 93%
    17:00 +2°C° 0 mm 1 mps 757 mmHg 92%
    18:00 +2°C° 0 mm 1 mps 757 mmHg 92%
    19:00 +1°C° 0 mm 1 mps 757 mmHg 92%
    20:00 +1°C° 0 mm 1 mps 757 mmHg 92%
    21:00 -1°C° 0 mm 2 mps 757 mmHg 92%
    22:00 -1°C° 0 mm 2 mps 757 mmHg 92%
    23:00 -2°C° 0 mm 2 mps 756 mmHg 91%

    Day after tomorrow, 19 December, Wednesday

    Time Temperature Precipitation Wind Pressure Humidity
    00:00 -2°C° 0 mm 2 mps 756 mmHg 91%
    01:00 -2°C° 0 mm 2 mps 756 mmHg 91%
    02:00 -2°C° 0 mm 2 mps 756 mmHg 91%
    03:00 -2°C° 0 mm 3 mps 755 mmHg 91%
    04:00 -2°C° 0 mm 3 mps 755 mmHg 90%
    05:00 -2°C° 0 mm 3 mps 755 mmHg 90%
    06:00 -2°C° 0 mm 3 mps 755 mmHg 89%
    07:00 -2°C° 0 mm 3 mps 754 mmHg 88%
    08:00 -2°C° 0 mm 3 mps 754 mmHg 86%
    09:00 -2°C° 0 mm 4 mps 754 mmHg 84%
    10:00 -2°C° 0 mm 4 mps 754 mmHg 81%
    11:00 -1°C° 0 mm 4 mps 754 mmHg 79%
    12:00 0°C° 0 mm 4 mps 754 mmHg 77%
    13:00 0°C° 0 mm 4 mps 753 mmHg 76%
    14:00 +1°C° 0 mm 3 mps 753 mmHg 78%
    15:00 0°C° 0 mm 3 mps 753 mmHg 80%
    16:00 -1°C° 0 mm 3 mps 752 mmHg 83%
    17:00 -1°C° 0 mm 3 mps 752 mmHg 83%
    18:00 -1°C° 0 mm 3 mps 752 mmHg 82%
    19:00 -1°C° 0 mm 3 mps 752 mmHg 82%
    20:00 -1°C° 0 mm 3 mps 752 mmHg 81%
    21:00 -1°C° 0 mm 3 mps 752 mmHg 81%
    22:00 -1°C° 0 mm 3 mps 752 mmHg 80%
    23:00 -1°C° 0 mm 2 mps 752 mmHg 81%

    20 December, Thursday

    Time Temperature Precipitation Wind Pressure Humidity
    00:00 -1°C° 0 mm 2 mps 752 mmHg 81%
    01:00 -1°C° 0 mm 2 mps 751 mmHg 81%
    02:00 -1°C° 0.1 mm 2 mps 751 mmHg 81%
    03:00 -1°C° 0.1 mm 2 mps 751 mmHg 81%
    04:00 -1°C° 0.1 mm 2 mps 751 mmHg 81%
    05:00 -1°C° 0.1 mm 2 mps 751 mmHg 80%
    06:00 -1°C° 0.1 mm 2 mps 751 mmHg 80%
    07:00 -1°C° 0.1 mm 2 mps 751 mmHg 79%
    08:00 -1°C° 0.1 mm 2 mps 751 mmHg 79%
    09:00 -1°C° 0.1 mm 2 mps 751 mmHg 79%
    10:00 -1°C° 0.1 mm 2 mps 751 mmHg 79%
    11:00 -1°C° 0 mm 2 mps 751 mmHg 79%
    12:00 +1°C° 0 mm 2 mps 751 mmHg 78%
    13:00 +1°C° 0 mm 2 mps 751 mmHg 78%
    14:00 +1°C° 0 mm 2 mps 751 mmHg 79%
    15:00 -1°C° 0 mm 2 mps 751 mmHg 81%
    16:00 -1°C° 0 mm 2 mps 751 mmHg 83%
    17:00 -1°C° 0.1 mm 2 mps 751 mmHg 84%
    18:00 -1°C° 0.1 mm 2 mps 751 mmHg 85%
    19:00 -1°C° 0.1 mm 2 mps 751 mmHg 86%
    20:00 -1°C° 0.2 mm 2 mps 751 mmHg 87%
    21:00 0°C° 0.2 mm 3 mps 751 mmHg 88%
    22:00 0°C° 0.2 mm 3 mps 751 mmHg 90%
    23:00 0°C° 0 mm 3 mps 751 mmHg 90%

    21 December, Friday

    Time Temperature Precipitation Wind Pressure Humidity
    00:00 0°C° 0 mm 3 mps 751 mmHg 89%
    01:00 0°C° 0 mm 3 mps 751 mmHg 89%
    02:00 0°C° 0 mm 3 mps 751 mmHg 89%
    03:00 0°C° 0 mm 3 mps 751 mmHg 88%
    04:00 0°C° 0 mm 3 mps 750 mmHg 88%
    05:00 0°C° 0.1 mm 3 mps 750 mmHg 87%
    06:00 0°C° 0.1 mm 4 mps 749 mmHg 87%
    07:00 0°C° 0.1 mm 4 mps 749 mmHg 86%
    08:00 0°C° 0.5 mm 4 mps 749 mmHg 86%
    09:00 +1°C° 0.5 mm 4 mps 749 mmHg 86%
    10:00 +1°C° 0.5 mm 4 mps 748 mmHg 86%
    11:00 +1°C° 0.1 mm 4 mps 748 mmHg 85%
    12:00 +3°C° 0.1 mm 4 mps 748 mmHg 84%
    13:00 +3°C° 0.1 mm 4 mps 747 mmHg 83%
    14:00 +3°C° 0 mm 4 mps 747 mmHg 85%
    15:00 +2°C° 0 mm 3 mps 746 mmHg 86%
    16:00 +2°C° 0 mm 3 mps 746 mmHg 87%
    17:00 +2°C° 0.8 mm 3 mps 745 mmHg 88%
    18:00 +2°C° 0.8 mm 3 mps 744 mmHg 89%
    19:00 +2°C° 0.8 mm 3 mps 744 mmHg 91%
    20:00 +2°C° 0.9 mm 3 mps 743 mmHg 91%
    21:00 +3°C° 0.9 mm 4 mps 742 mmHg 91%
    22:00 +3°C° 0.9 mm 4 mps 741 mmHg 91%
    23:00 +3°C° 0.3 mm 5 mps 741 mmHg 88%

    22 December, Saturday

    Time Temperature Precipitation Wind Pressure Humidity
    00:00 +4°C° 0.3 mm 6 mps 741 mmHg 86%
    01:00 +5°C° 0.3 mm 7 mps 741 mmHg 84%
    02:00 +5°C° 0 mm 7 mps 742 mmHg 82%
    03:00 +4°C° 0 mm 7 mps 742 mmHg 80%
    04:00 +4°C° 0 mm 7 mps 742 mmHg 79%
    05:00 +4°C° 0 mm 7 mps 742 mmHg 80%
    06:00 +4°C° 0 mm 7 mps 742 mmHg 80%
    07:00 +4°C° 0 mm 7 mps 743 mmHg 81%
    08:00 +4°C° 0 mm 7 mps 742 mmHg 81%
    09:00 +4°C° 0 mm 7 mps 742 mmHg 81%
    10:00 +5°C° 0 mm 7 mps 742 mmHg 81%
    11:00 +5°C° 0.2 mm 7 mps 742 mmHg 81%
    12:00 +5°C° 0.2 mm 7 mps 742 mmHg 82%
    13:00 +5°C° 0.2 mm 7 mps 742 mmHg 82%
    14:00 +5°C° 0.6 mm 7 mps 743 mmHg 83%
    15:00 +5°C° 0.6 mm 7 mps 743 mmHg 84%
    16:00 +5°C° 0.6 mm 7 mps 744 mmHg 84%
    17:00 +5°C° 0.3 mm 6 mps 745 mmHg 86%
    18:00 +4°C° 0.3 mm 6 mps 746 mmHg 88%
    19:00 +5°C° 0.3 mm 5 mps 747 mmHg 89%
    20:00 +5°C° 0.3 mm 5 mps 747 mmHg 89%
    21:00 +5°C° 0.3 mm 4 mps 748 mmHg 89%
    22:00 +4°C° 0.3 mm 4 mps 749 mmHg 89%
    23:00 +4°C° 0.1 mm 4 mps 749 mmHg 89%
    Show more